TimeAST,TemperatureF,Dew PointF,Humidity,Sea Level PressureIn,VisibilityMPH,Wind Direction,Wind SpeedMPH,Gust SpeedMPH,PrecipitationIn,Events,Conditions,WindDirDegrees,DateUTC
12:00 AM,71.6,68.0,88,29.89,-9999.0,ESE,5.8,-,N/A,,Clear,120,2013-01-09 21:00:00
1:00 AM,71.6,68.0,88,29.89,-9999.0,ESE,5.8,-,N/A,,Clear,110,2013-01-09 22:00:00
3:00 AM,71,68,86,29.88,7,NE,3.5,,,,Clear,50,2013-01-10 00:00:00
3:00 AM,71.6,68.0,88,29.86,-9999.0,NE,3.5,-,N/A,,Clear,50,2013-01-10 00:00:00
3:30 AM,71.6,68.0,88,29.86,-9999.0,Variable,2.3,-,N/A,,Clear,0,2013-01-10 00:30:00
4:00 AM,71.6,68.0,88,29.86,-9999.0,Variable,2.3,-,N/A,,Clear,0,2013-01-10 01:00:00
4:30 AM,69.8,66.2,88,29.86,5.0,Variable,2.3,-,N/A,,Unknown,0,2013-01-10 01:30:00
5:00 AM,71.6,68.0,88,29.86,5.0,Variable,2.3,-,N/A,,Unknown,0,2013-01-10 02:00:00
5:30 AM,69.8,66.2,88,29.89,4.3,Calm,Calm,-,N/A,,Unknown,0,2013-01-10 02:30:00
6:00 AM,69.8,66.2,88,29.89,4.3,Calm,Calm,-,N/A,,Unknown,0,2013-01-10 03:00:00
6:30 AM,69.8,68.0,94,29.92,3.7,SSE,3.5,-,N/A,,Unknown,150,2013-01-10 03:30:00
7:00 AM,71.6,68.0,88,29.92,4.3,South,3.5,-,N/A,,Unknown,180,2013-01-10 04:00:00
7:30 AM,71.6,68.0,88,29.92,4.3,South,4.6,-,N/A,,Unknown,180,2013-01-10 04:30:00
8:00 AM,71.6,64.4,78,29.95,4.3,South,5.8,-,N/A,,Unknown,190,2013-01-10 05:00:00
8:30 AM,73.4,62.6,69,29.95,4.3,SSW,6.9,-,N/A,,Unknown,200,2013-01-10 05:30:00
9:00 AM,75,61,52,29.96,4,SW,9.2,,,,Widespread Dust,220,2013-01-10 06:00:00
9:00 AM,75.2,60.8,61,29.95,4.3,SW,9.2,-,N/A,,Unknown,220,2013-01-10 06:00:00
9:30 AM,77.0,59.0,54,29.95,4.3,SSW,11.5,-,N/A,,Unknown,200,2013-01-10 06:30:00
10:00 AM,77.0,59.0,54,29.95,4.3,SSW,11.5,-,N/A,,Unknown,200,2013-01-10 07:00:00
10:30 AM,80.6,57.2,45,29.95,4.3,SSW,12.7,-,N/A,,Unknown,210,2013-01-10 07:30:00
11:00 AM,80.6,55.4,42,29.92,5.0,SW,11.5,-,N/A,,Unknown,220,2013-01-10 08:00:00
11:30 AM,80.6,57.2,45,29.92,5.0,WSW,9.2,-,N/A,,Unknown,240,2013-01-10 08:30:00
12:00 PM,80.6,57.2,45,29.92,5.0,WSW,6.9,-,N/A,,Unknown,250,2013-01-10 09:00:00
12:30 PM,80.6,59.0,48,29.89,5.6,WSW,5.8,-,N/A,,Unknown,250,2013-01-10 09:30:00
1:00 PM,80.6,59.0,48,29.89,5.6,WSW,5.8,-,N/A,,Unknown,250,2013-01-10 10:00:00
1:30 PM,82.4,60.8,48,29.89,5.6,West,4.6,-,N/A,,Unknown,280,2013-01-10 10:30:00
2:00 PM,82.4,59.0,45,29.89,5.6,WNW,6.9,-,N/A,,Unknown,300,2013-01-10 11:00:00
3:00 PM,80,59,38,29.91,5,NW,11.5,,,,Widespread Dust,310,2013-01-10 12:00:00
3:00 PM,80.6,59.0,48,29.89,5.0,NW,11.5,-,N/A,,Unknown,310,2013-01-10 12:00:00
3:30 PM,78.8,57.2,47,29.92,5.0,NW,12.7,-,N/A,,Unknown,320,2013-01-10 12:30:00
4:00 PM,77.0,53.6,44,29.92,2.5,NNW,16.1,-,N/A,,Unknown,330,2013-01-10 13:00:00
5:00 PM,71.6,53.6,53,29.95,3.1,NW,13.8,-,N/A,,Unknown,320,2013-01-10 14:00:00
5:30 PM,71.6,57.2,60,29.98,3.1,NNW,16.1,-,N/A,,Unknown,330,2013-01-10 14:30:00
6:00 PM,69.8,57.2,64,29.98,3.1,NNW,19.6,-,N/A,,Unknown,330,2013-01-10 15:00:00
7:00 PM,68.0,55.4,64,30.01,3.1,NNW,19.6,31.1,N/A,,Low Drifting Widespread Dust,330,2013-01-10 16:00:00
8:00 PM,66.2,55.4,68,30.01,4.3,NNW,17.3,28.8,N/A,,Unknown,330,2013-01-10 17:00:00
9:00 PM,66,53,53,30.05,5,NNW,19.6,,,,Blowing Sand,330,2013-01-10 18:00:00
9:00 PM,66.2,53.6,64,30.04,5.0,NNW,19.6,-,N/A,,Unknown,330,2013-01-10 18:00:00
9:30 PM,66.2,51.8,60,30.04,5.0,NNW,18.4,-,N/A,,Unknown,330,2013-01-10 18:30:00
10:00 PM,66.2,51.8,60,30.06,5.0,NNW,17.3,-,N/A,,Unknown,330,2013-01-10 19:00:00
10:30 PM,64.4,51.8,64,30.06,5.0,NNW,18.4,-,N/A,,Unknown,330,2013-01-10 19:30:00
11:00 PM,64.4,50.0,59,30.09,5.6,NNW,17.3,-,N/A,,Unknown,330,2013-01-10 20:00:00
11:30 PM,64.4,48.2,56,30.09,-9999.0,NNW,18.4,32.2,N/A,,Clear,330,2013-01-10 20:30:00